This is the latest recevied weather packets stored in our database for station/object WP3XM. If no packets are shown the sender has not sent any weather packets the latest 10 day(s).
| Time | Temp. | Humidity | Pressure | Rain* | Wind** | Luminosity | Snow |
|---|---|---|---|---|---|---|---|
| 1777474530 | 27.78° C | 80% | 1016.5 hPa | 0 mm | - | 908 W/m² | - |
| 1777474227 | 27.22° C | 81% | 1016.7 hPa | 0 mm | - | 432 W/m² | - |
| 1777473925 | 26.67° C | 81% | 1016.7 hPa | 0 mm | - | 260 W/m² | - |
| 1777473622 | 26.67° C | 82% | 1016.6 hPa | 0 mm | - | 288 W/m² | - |
| 1777473318 | 26.67° C | 82% | 1016.6 hPa | 0 mm | - | 237 W/m² | - |
| 1777473014 | 26.67° C | 82% | 1016.7 hPa | 0 mm | - | 246 W/m² | - |
| 1777472710 | 26.67° C | 83% | 1016.8 hPa | 0 mm | - | 285 W/m² | - |
| 1777472407 | 26.67° C | 82% | 1016.7 hPa | 0 mm | - | 288 W/m² | - |
| 1777472105 | 27.22° C | 81% | 1016.9 hPa | 0 mm | - | 218 W/m² | - |
| 1777471800 | 27.78° C | 78% | 1016.8 hPa | 0 mm | - | 217 W/m² | - |
| 1777471496 | 27.78° C | 77% | 1016.6 hPa | 0 mm | - | 380 W/m² | - |
| 1777471193 | 27.78° C | 77% | 1016.8 hPa | 0 mm | - | 493 W/m² | - |
| 1777470890 | 27.78° C | 75% | 1016.9 hPa | 0 mm | - | 433 W/m² | - |
| 1777470587 | 27.78° C | 77% | 1016.7 hPa | 0 mm | - | 457 W/m² | - |
| 1777470283 | 27.78° C | 77% | 1016.7 hPa | 0 mm | - | 476 W/m² | - |
| 1777469979 | 27.78° C | 77% | 1016.6 hPa | 0 mm | - | 512 W/m² | - |
| 1777469675 | 27.78° C | 78% | 1016.6 hPa | 0 mm | - | 585 W/m² | - |
| 1777469371 | 27.22° C | 81% | 1016.8 hPa | 0 mm | - | 531 W/m² | - |
| 1777469067 | 27.22° C | 83% | 1016.9 hPa | 0 mm | - | 498 W/m² | - |
| 1777468762 | 27.22° C | 84% | 1016.8 hPa | 0 mm | - | 393 W/m² | - |
| 1777468458 | 27.22° C | 83% | 1016.7 hPa | 0 mm | - | 273 W/m² | - |
| 1777468155 | 27.22° C | 83% | 1016.8 hPa | 0 mm | - | 351 W/m² | - |
| 1777467851 | 27.22° C | 85% | 1016.6 hPa | 0 mm | - | 365 W/m² | - |
| 1777467546 | 27.22° C | 84% | 1016.7 hPa | 0 mm | - | 274 W/m² | - |
| 1777467241 | 27.22° C | 84% | 1016.4 hPa | 0 mm | - | 165 W/m² | - |
* Rain latest hour (hover to see other rain measurements)
** Current wind speed in m/s (hover to see current wind gust speed)